Regional Weather Roundup
Issued by NWS

Home | Current Version | Previous Version | Graphics & Text | Print | Product List | Glossary On
Versions: 1 2 3 4 5 6 7 8 9 10 11 12 13 14 15 16 17 18 19 20 21 22 23 24 25 26 27 28 29 30 31 32 33 34 35 36 37 38 39 40 41 42 43 44 45 46 47 48 49 50
000
ASUS43 KIND 171659
RWRIN

WEATHER ROUNDUP FOR INDIANA
NATIONAL WEATHER SERVICE INDIANAPOLIS IN
1200 PM EST FRI NOV 17 2017

NOTE: "FAIR" INDICATES FEW OR NO CLOUDS BELOW 12,000 FEET WITH NO
SIGNIFICANT WEATHER AND/OR OBSTRUCTIONS TO VISIBILITY.

* - STATION DOES NOT REPORT WEATHER SUCH AS PRECIPITATION OR FOG.

+ - STATION NOT QUALITY CONTROLLED BY THE NATIONAL WEATHER SERVICE.
    USE DATA WITH CAUTION...ESPECIALLY DEWPOINT AND RELATIVE
    HUMIDITY OBSERVATIONS.

INZ001>003-010>013-019-020-171800-
NORTHWEST INDIANA

CITY           SKY/WX    TMP DP  RH WIND       PRES   REMARKS
GARY /AIRPORT/ CLOUDY    43  30  61 SE26      30.02F
KNOX *+        CLOUDY    41  32  70 SE15      30.07F
LA PORTE +     CLOUDY    40  33  75 S14       30.05F WCI  33
MICHIGAN CITY+ CLOUDY    41  32  70 SE10G21   30.04F
MONTICELLO +   CLOUDY    40  32  72 SE12G17   30.07F WCI  33
RENSSELAER +   CLOUDY    41  32  70 SE13      30.05F

$$

LMZ046-743>745-171800-
SOUTHERN LAKE MICHIGAN

STATION/POSITION TIME  TEMP    WIND        PRES    WAVE
                       AIR SEA DIR/SP/G            HT
                 (UTC) (F)     (DEG/KT/KT) (MB)    (FT)
BURNS HARBOR     1640   41     170/ 17/ 25 1017.3F
MICHIGAN CITY    1630   39     140/ 18/ 21   N/A

$$

INZ004-005-014>016-021>024-171800-
NORTH CENTRAL INDIANA

CITY           SKY/WX    TMP DP  RH WIND       PRES   REMARKS
GOSHEN         MOSUNNY   41  31  67 SE13      30.09F
PERU/GRISSOM   SUNNY     42  34  73 S15       30.07F
SOUTH BEND     CLOUDY    40  33  76 SE16      30.06F WCI  31
WARSAW +       MOSUNNY   41  32  70 SE10      30.10F

$$

INZ006>009-017-018-025>027-171800-
NORTHEAST INDIANA

CITY           SKY/WX    TMP DP  RH WIND       PRES   REMARKS
AUBURN +       PTSUNNY   43  32  65 SE7       30.13F
FORT WAYNE     PTSUNNY   43  34  70 SE15      30.12F
KENDALLVILLE + MOSUNNY   40  33  74 SE18      30.11F WCI  31

$$

INZ028-029-035-036-043>045-051>053-171800-
WEST CENTRAL INDIANA

CITY           SKY/WX    TMP DP  RH WIND       PRES   REMARKS
CRAWFORDSVL +  CLOUDY    38  33  82 SE13      30.08F WCI  30
GREENCASTLE +  CLOUDY    39  32  75 S10       30.10F WCI  32
LAFAYETTE      CLOUDY    41  33  73 SE9G17    30.07F
TERRE HAUTE    CLOUDY    38  32  79 S13       30.10F WCI  30

$$

INZ030>032-037>040-046>048-054>057-064-065-171800-
CENTRAL INDIANA

CITY           SKY/WX    TMP DP  RH WIND       PRES   REMARKS
COLUMBUS       SUNNY     39  30  70 S12       30.15F WCI  32
INDIANAPOLIS   CLOUDY    40  32  73 S13       30.11F WCI  32
-EAGLE CREEK   CLOUDY    41  30  65 S10       30.10F
KOKOMO +       CLOUDY    42  33  70 SE16      30.09F
MT COMFORT *+  CLOUDY    41  36  81 SE12      30.12F
SHELBYVILLE    SUNNY     43  32  65 SE14      30.12F

$$

INZ033-034-041-042-049-050-058-059-171800-
EAST CENTRAL INDIANA

CITY           SKY/WX    TMP DP  RH WIND       PRES   REMARKS
MUNCIE         SUNNY     44  32  62 SE12      30.12F
RICHMOND +     SUNNY     39  32  75 SE14      30.15F WCI  31

$$

INZ060-061-067>069-081>083-085>088-171800-
SOUTHWEST INDIANA

CITY           SKY/WX    TMP DP  RH WIND       PRES   REMARKS
EVANSVILLE     CLOUDY    39  37  92 SE10      30.14F FOG     WCI  32
HUNTINGBURG +  CLOUDY    41  35  79 SE10      30.15F

$$

INZ062-063-066-070>080-084-089>092-171800-
SOUTH CENTRAL AND SOUTHEAST INDIANA

CITY           SKY/WX    TMP DP  RH WIND       PRES   REMARKS
BLOOMINGTON    CLOUDY    41  31  67 SE9       30.12F
MADISON *+     SUNNY     43  32  65 SE7       30.17F
SEYMOUR +      MOSUNNY   43  32  65 SE10      30.16F

$$




USA.gov is the U.S. government's official web portal to all federal, state and local government web resources and services.